Wind_Speed
13 10 8 6 6 10 14 16 18 19 20 20 20 19 19 18 17 14 12 11 10 10 9 8 7 6 5 4 3 2 2 1 1 1 1 1 1 1 1 0 0 1 1
13 11 9 5 5 9 13 16 18 19 19 19 20 20 20 18 17 15 13 12 12 11 11 9 8 7 6 5 4 2 2 1 1 1 1 1 1 1 1 1 1 1 1
12 12 9 6 5 8 11 16 19 20 20 20 20 20 19 18 16 15 14 13 13 13 12 10 9 8 6 5 5 3 3 2 1 1 1 1 1 2 2 2 2 2 2
11 10 9 6 4 7 10 14 18 19 20 20 20 20 20 18 16 15 14 13 14 14 12 11 10 9 7 6 6 5 4 3 3 2 2 2 2 3 3 3 3 3 3
11 9 8 5 3 6 9 12 15 17 18 18 19 20 19 18 16 15 15 15 15 14 13 12 11 10 9 8 7 7 6 5 5 4 4 4 4 5 5 5 6 6 6
10 8 6 3 2 4 8 11 14 17 18 18 18 19 18 17 16 15 15 15 14 14 14 13 12 11 10 10 9 9 8 8 7 7 7 7 7 8 8 8 9 8 8
10 7 5 3 1 4 7 10 13 16 17 17 18 17 17 16 15 15 15 14 14 14 14 13 13 12 12 11 11 11 11 11 10 10 11 11 11 11 11 11 12 12 12
8 5 3 2 1 2 5 8 12 14 16 17 18 16 16 15 14 14 15 14 14 14 14 14 14 13 13 13 13 13 13 13 14 14 14 14 14 15 14 15 15 15 16
8 5 3 2 1 2 4 6 9 12 14 15 17 16 15 15 15 15 15 14 15 15 15 15 15 15 15 15 16 16 16 16 17 17 17 17 18 18 18 18 19 19 19
8 6 4 2 1 1 3 5 7 10 12 13 14 14 14 14 14 15 15 16 16 16 16 17 17 17 17 18 18 18 19 19 20 20 21 21 21 21 21 21 22 22 22
7 5 4 2 1 2 3 4 6 7 10 12 13 13 14 14 14 16 16 17 17 17 18 19 19 20 20 20 21 21 22 22 23 23 24 24 24 25 25 25 25 25 25
6 6 4 4 3 3 3 4 5 6 8 11 12 13 14 15 16 17 18 18 19 19 20 20 21 22 23 23 24 24 25 26 26 27 27 28 28 28 28 28 28 28 28
7 7 6 5 5 5 4 4 5 7 8 9 11 13 14 15 16 18 19 19 20 21 21 22 23 24 25 26 26 27 27 29 30 30 30 31 31 32 32 32 32 32 32
10 9 8 7 6 6 6 6 6 8 8 9 10 11 13 14 16 17 18 20 21 22 23 24 25 26 26 27 29 30 31 32 33 33 34 35 34 34 34 35 35 36 36
11 11 10 10 9 8 8 8 8 8 8 9 10 12 13 14 16 18 19 20 22 23 24 26 27 28 29 30 31 33 34 35 36 37 37 37 37 37 37 38 38 39 39
11 11 11 12 12 12 11 11 11 10 11 12 13 14 15 16 17 18 19 20 22 24 25 27 29 31 32 33 34 35 36 38 38 39 40 40 40 41 41 41 42 42 43
13 13 13 14 14 14 13 13 13 13 14 14 15 15 16 17 18 19 21 22 24 26 27 29 31 32 34 35 36 38 39 40 41 42 43 43 43 43 44 45 45 45 46
16 15 15 15 15 15 15 15 15 15 15 17 18 18 19 20 20 22 23 25 27 28 29 31 32 34 35 36 37 38 40 41 43 44 45 45 46 46 46 47 48 49 49
18 17 16 16 16 16 16 16 16 17 18 18 19 20 21 22 23 25 26 28 29 31 32 33 34 35 36 36 38 39 40 42 43 44 45 45 46 46 48 49 49 50 51
20 19 17 17 17 17 17 18 18 19 19 20 21 22 23 24 25 27 28 30 31 33 33 35 36 37 38 39 41 42 43 44 45 45 45 46 47 48 49 50 50 50 51
22 21 19 18 18 18 18 19 20 21 22 23 24 24 25 27 27 29 30 31 32 33 34 36 37 39 40 42 42 42 43 44 46 46 47 48 49 49 50 50 51 51 52
24 23 22 21 20 20 20 21 22 23 23 24 26 26 27 29 30 30 32 33 34 35 35 37 38 40 41 42 42 42 43 44 45 46 48 49 50 51 52 53 54 55 56
27 25 23 23 22 22 23 23 24 25 26 27 28 29 29 30 31 33 34 35 36 36 37 38 39 41 42 43 44 44 45 47 48 49 50 51 52 53 55 56 57 58 60
25 25 24 24 24 24 24 25 25 26 27 29 30 30 31 32 33 35 36 37 37 39 40 41 42 44 45 46 47 48 49 50 51 52 52 53 55 56 57 58 60 61 62
27 26 26 26 26 26 26 26 27 27 28 30 31 32 33 34 35 37 38 39 40 42 43 44 46 47 48 49 50 51 52 52 53 54 55 56 57 58 59 60 61 62 62
26 27 26 26 25 25 26 27 27 28 30 31 32 34 35 36 37 39 40 42 43 45 46 47 48 49 50 51 52 53 54 54 54 55 55 56 57 58 58 58 58 59 59
Wind_Direction
337 331 321 294 238 209 203 199 197 198 202 206 208 207 206 207 208 214 217 219 217 214 211 211 210 207 205 203 201 206 205 186 178 180 185 188 186 173 161 163 214 268 284
341 337 328 301 243 211 206 203 198 196 201 203 205 204 203 204 207 210 214 215 214 211 209 210 210 209 208 209 209 205 210 203 194 192 187 195 205 220 233 240 263 280 282
335 336 332 312 245 214 207 203 200 200 201 201 201 200 201 206 207 209 212 212 213 212 211 210 212 212 210 214 216 213 220 216 203 198 207 213 228 243 256 265 276 287 293
336 338 339 325 248 212 202 198 198 199 200 201 201 201 203 205 206 210 213 214 215 215 213 212 215 216 219 224 228 230 233 232 226 225 231 240 252 259 259 261 267 275 285
336 334 331 322 248 204 197 197 195 196 197 199 198 199 200 203 208 212 215 216 215 216 216 216 219 222 226 231 236 239 240 239 240 245 249 255 262 266 268 266 267 270 275
333 329 326 319 237 199 196 196 197 196 195 196 195 197 200 204 209 214 215 214 214 217 218 219 223 227 231 235 239 242 244 246 249 254 260 264 267 270 273 274 272 270 272
327 323 321 318 250 206 193 194 194 194 194 197 198 200 202 204 209 213 213 215 219 220 222 224 228 233 237 239 243 246 249 252 255 259 264 268 271 273 274 274 273 273 274
330 323 328 325 292 186 182 187 188 193 196 199 200 202 203 206 209 213 215 221 224 225 228 230 233 238 242 245 248 251 254 258 260 263 266 270 272 273 274 274 273 272 273
338 333 329 335 345 167 171 179 188 196 199 200 201 204 207 210 212 216 222 225 227 230 234 237 240 244 247 250 253 255 258 261 264 265 268 270 273 274 275 275 274 274 274
336 337 340 330 291 197 184 184 192 198 199 200 203 208 212 214 219 225 230 232 235 239 242 244 246 249 252 255 258 259 262 264 266 267 269 270 272 273 274 275 274 275 275
325 332 324 301 257 221 207 198 195 200 203 204 208 215 220 223 228 232 236 239 241 245 249 250 251 253 256 259 261 263 265 267 268 269 270 271 272 272 273 273 273 273 273
306 316 308 282 254 238 228 214 207 211 212 214 217 223 229 232 235 238 244 249 250 251 253 255 257 260 261 262 264 265 267 269 270 271 272 273 273 273 273 272 272 272 272
292 293 289 274 258 250 243 235 227 223 223 223 224 230 234 237 241 245 249 253 256 257 259 261 263 265 266 266 267 268 270 271 272 272 272 274 274 274 273 273 273 273 273
281 280 271 263 259 258 256 256 247 240 237 237 240 241 241 244 247 251 253 255 259 261 264 265 266 267 268 270 270 270 271 272 272 273 273 273 274 274 274 274 274 274 274
277 273 266 259 257 257 256 256 257 254 249 247 248 250 254 255 256 256 259 260 260 265 268 267 268 269 271 273 273 272 272 272 273 274 274 274 273 273 273 274 275 275 274
278 271 263 258 255 254 254 253 255 257 258 258 258 258 258 258 260 261 263 264 265 268 271 272 272 273 274 275 275 274 273 273 274 274 275 275 275 274 274 274 275 275 275
275 272 271 262 259 257 255 256 256 257 260 262 265 267 268 267 267 268 269 270 272 272 274 275 275 274 275 276 276 275 275 274 273 274 275 276 276 276 274 274 275 275 275
269 269 268 264 262 260 259 259 261 263 265 268 270 271 272 272 276 276 275 276 276 276 276 277 276 275 277 277 276 277 277 277 276 275 275 276 276 276 276 276 276 275 275
265 264 263 260 261 261 260 261 263 266 269 272 273 273 273 274 276 277 277 279 279 279 279 278 277 277 278 279 279 279 280 279 279 279 278 277 277 277 277 276 276 276 276
264 263 260 257 256 257 260 264 267 268 270 272 274 274 275 276 277 278 279 279 280 279 278 279 279 279 279 279 279 279 279 279 279 279 278 278 278 277 277 277 277 277 277
262 260 255 253 256 258 263 266 268 269 271 274 275 276 279 279 280 281 282 282 282 281 281 282 282 281 281 281 281 281 280 280 280 280 280 279 279 278 278 278 278 278 278
258 256 252 253 256 260 264 267 268 270 273 276 278 279 281 282 283 284 285 285 285 285 284 284 284 284 284 283 283 283 282 281 281 280 280 280 279 279 279 279 279 279 278
256 251 251 253 255 259 264 268 270 273 275 278 280 281 282 284 285 286 287 288 287 288 288 288 287 286 286 285 284 283 282 282 281 281 280 280 280 280 280 280 280 280 280
253 250 251 255 259 262 265 269 272 275 278 281 282 284 286 287 288 288 290 290 290 290 290 289 289 288 288 287 286 285 285 284 283 283 282 282 282 282 282 282 282 282 281
253 252 253 256 261 265 268 270 274 277 279 282 284 286 288 289 289 290 291 290 290 290 290 290 290 290 289 288 287 287 286 285 285 284 284 284 284 284 284 283 283 283 282
250 251 253 258 262 265 269 273 277 280 283 284 286 287 289 289 290 291 291 291 291 291 291 290 290 290 289 288 288 287 287 286 286 286 286 286 286 285 285 285 285 285 285
Height
5831 5829 5826 5825 5824 5825 5827 5829 5832 5835 5839 5843 5846 5850 5853 5856 5859 5862 5864 5866 5868 5870 5872 5873 5874 5875 5876 5877 5878 5879 5880 5880 5880 5881 5881 5881 5881 5881 5881 5881 5881 5881 5881
5830 5828 5826 5824 5823 5824 5825 5827 5830 5834 5837 5841 5844 5848 5851 5855 5857 5860 5862 5864 5866 5868 5871 5872 5874 5875 5876 5877 5878 5879 5879 5879 5880 5880 5881 5881 5882 5881 5881 5881 5881 5881 5880
5830 5827 5825 5822 5822 5822 5823 5825 5828 5832 5835 5839 5842 5846 5850 5853 5856 5858 5860 5862 5865 5867 5869 5871 5872 5874 5875 5876 5877 5878 5879 5879 5879 5880 5881 5881 5881 5881 5881 5881 5881 5880 5880
5829 5827 5824 5822 5821 5821 5822 5824 5826 5829 5833 5836 5840 5844 5848 5851 5854 5856 5858 5860 5863 5866 5868 5870 5871 5873 5874 5875 5876 5877 5878 5878 5879 5879 5880 5880 5880 5880 5881 5881 5880 5880 5879
5829 5827 5824 5822 5821 5821 5821 5823 5825 5828 5831 5834 5838 5842 5845 5849 5852 5854 5857 5859 5862 5864 5866 5868 5870 5871 5873 5874 5875 5876 5877 5877 5878 5878 5879 5879 5879 5879 5879 5880 5879 5879 5878
5829 5827 5825 5823 5822 5821 5821 5822 5825 5827 5831 5833 5837 5840 5843 5847 5850 5852 5855 5857 5860 5862 5864 5866 5868 5869 5871 5872 5873 5874 5875 5876 5876 5877 5877 5878 5878 5878 5878 5878 5877 5877 5877
5828 5827 5825 5824 5822 5822 5821 5822 5824 5827 5830 5833 5836 5839 5842 5845 5848 5851 5854 5856 5858 5860 5862 5864 5866 5868 5869 5870 5871 5872 5873 5874 5874 5875 5875 5875 5876 5876 5876 5875 5875 5875 5874
5827 5826 5825 5824 5823 5822 5822 5823 5824 5826 5829 5832 5835 5838 5841 5844 5847 5850 5852 5854 5857 5858 5860 5862 5864 5865 5866 5868 5869 5869 5870 5871 5871 5872 5872 5872 5872 5872 5872 5872 5872 5872 5871
5828 5827 5825 5824 5823 5823 5823 5823 5824 5826 5828 5831 5834 5837 5839 5842 5845 5848 5850 5852 5854 5856 5858 5859 5861 5862 5863 5864 5865 5866 5867 5867 5868 5868 5868 5869 5869 5869 5868 5868 5868 5868 5867
5828 5827 5826 5825 5824 5824 5824 5824 5825 5826 5828 5830 5833 5835 5838 5841 5844 5846 5848 5850 5852 5853 5855 5856 5857 5859 5860 5861 5861 5862 5863 5863 5863 5864 5864 5864 5864 5863 5863 5863 5863 5862 5862
5828 5827 5826 5825 5825 5825 5825 5825 5825 5826 5828 5830 5832 5834 5837 5839 5841 5844 5845 5847 5849 5850 5851 5853 5854 5855 5855 5856 5857 5857 5858 5858 5858 5858 5858 5858 5858 5857 5857 5857 5856 5856 5856
5827 5827 5826 5825 5825 5825 5825 5825 5825 5826 5827 5829 5831 5833 5834 5836 5839 5841 5842 5844 5845 5846 5848 5849 5850 5850 5851 5851 5852 5852 5852 5852 5852 5852 5852 5851 5851 5850 5850 5849 5849 5849 5848
5826 5825 5825 5825 5825 5825 5825 5825 5825 5826 5827 5827 5829 5831 5832 5834 5836 5837 5839 5840 5841 5842 5843 5844 5845 5845 5845 5845 5846 5846 5846 5845 5845 5844 5844 5843 5843 5842 5842 5841 5841 5840 5840
5824 5823 5823 5823 5823 5823 5824 5824 5824 5825 5825 5826 5828 5829 5830 5831 5832 5834 5835 5836 5837 5838 5838 5839 5839 5839 5839 5839 5839 5838 5838 5837 5837 5836 5835 5835 5834 5833 5832 5832 5832 5831 5830
5822 5821 5821 5821 5822 5822 5822 5822 5822 5823 5823 5825 5825 5826 5827 5828 5829 5830 5831 5831 5832 5832 5833 5833 5833 5832 5832 5831 5831 5830 5830 5829 5828 5827 5826 5825 5824 5823 5822 5822 5821 5820 5819
5819 5819 5819 5819 5819 5820 5820 5820 5820 5821 5821 5822 5823 5823 5824 5824 5825 5825 5826 5826 5827 5827 5827 5826 5826 5825 5824 5823 5823 5822 5821 5819 5818 5817 5816 5815 5814 5813 5812 5810 5809 5808 5807
5815 5815 5815 5816 5816 5817 5817 5818 5818 5818 5818 5819 5819 5820 5820 5820 5820 5821 5821 5821 5821 5821 5820 5819 5818 5817 5816 5815 5813 5811 5810 5809 5808 5806 5805 5803 5802 5801 5800 5799 5797 5796 5794
5811 5812 5811 5811 5812 5812 5813 5814 5814 5814 5815 5815 5815 5815 5816 5815 5815 5815 5815 5815 5814 5813 5812 5811 5809 5808 5806 5804 5803 5802 5800 5798 5797 5795 5793 5792 5791 5789 5787 5786 5785 5783 5781
5806 5807 5807 5807 5807 5808 5809 5809 5810 5810 5810 5810 5810 5810 5810 5810 5810 5809 5809 5808 5807 5805 5804 5802 5801 5799 5797 5795 5793 5791 5789 5787 5785 5783 5781 5780 5778 5776 5775 5773 5771 5769 5767
5801 5801 5801 5802 5803 5804 5804 5805 5805 5805 5805 5805 5805 5804 5804 5804 5803 5802 5801 5800 5798 5796 5795 5793 5791 5789 5787 5785 5782 5780 5777 5775 5773 5771 5769 5767 5765 5763 5761 5759 5757 5756 5754
5795 5795 5796 5796 5797 5798 5799 5799 5800 5800 5800 5800 5799 5798 5797 5796 5795 5794 5793 5791 5789 5787 5785 5783 5781 5778 5776 5773 5771 5768 5765 5763 5761 5758 5756 5754 5751 5749 5747 5744 5742 5740 5738
5788 5789 5790 5791 5791 5792 5793 5794 5794 5794 5793 5793 5792 5791 5790 5789 5787 5785 5784 5782 5779 5777 5775 5772 5770 5767 5764 5762 5759 5756 5753 5750 5748 5745 5742 5739 5737 5734 5731 5729 5727 5724 5722
5781 5782 5783 5785 5785 5786 5787 5787 5787 5787 5786 5785 5784 5783 5781 5780 5778 5776 5774 5771 5769 5766 5764 5761 5758 5755 5752 5749 5746 5743 5740 5737 5734 5731 5728 5725 5722 5719 5715 5712 5710 5707 5704
5774 5775 5777 5778 5779 5779 5779 5779 5779 5779 5778 5777 5776 5774 5772 5770 5768 5766 5763 5761 5758 5755 5752 5749 5746 5743 5740 5736 5733 5729 5726 5722 5719 5715 5712 5709 5705 5702 5698 5695 5692 5689 5685
5766 5768 5769 5770 5771 5771 5771 5771 5771 5770 5770 5769 5767 5765 5763 5760 5758 5756 5753 5750 5747 5744 5741 5737 5733 5730 5726 5722 5718 5714 5710 5706 5703 5699 5695 5692 5688 5684 5680 5677 5673 5669 5666
5759 5761 5762 5763 5763 5764 5764 5764 5763 5762 5761 5760 5758 5756 5754 5751 5748 5745 5742 5738 5735 5731 5727 5723 5719 5715 5711 5707 5703 5698 5694 5690 5686 5682 5678 5674 5670 5666 5662 5659 5654 5650 5646